Preview of NWS' New Version of Forecast
This preview is not operational and should not be used for support decisions.

Regional Weather Roundup (RWR)

Issued by National Weather Service (NWS)

                            
000
ASUS45 KCYS 231410
RWRWY 

WYOMING REGIONAL WEATHER ROUNDUP
NATIONAL WEATHER SERVICE CHEYENNE WY
800 AM MDT SUN JUN 23 2019

NOTE:  "FAIR" INDICATES FEW OR NO CLOUDS BELOW 12,000 FEET
WITH NO SIGNIFICANT WEATHER AND/OR OBSTRUCTIONS TO VISIBILITY.

WYZ001-231500-
YELLOWSTONE NATIONAL PARK
  
CITY           SKY/WX    TMP DP  RH WIND       PRES   REMARKS
LK YELLOWSTONE   N/A     38  34  85 CALM      30.20R                  
W YELLOWSTONE  NOT AVBL                                               

$$
WYZ002>013-054>058-071-098>099-231500-
NORTHERN WYOMING
  
CITY           SKY/WX    TMP DP  RH WIND       PRES   REMARKS
JACKSON        FAIR      45  35  68 CALM      30.17S                  
CODY           FAIR      58  35  42 W8        30.04F                  
GREYBULL       FAIR      51  37  58 VRB3      30.02F                  
WORLAND        FAIR      54  40  59 S6        30.03F                  
SHERIDAN       FAIR      57  44  62 S5        30.00S                  
BUFFALO        FAIR      55  41  59 SW6       30.04S                  
GILLETTE       FAIR      54  47  77 SW8       30.01S                  
HULETT         FAIR      54  45  71 SW7       30.02                   
NEWCASTLE      CLOUDY    54  45  71 S12       30.04                   

$$
WYZ014>020-022>026-101>103-231500-
CENTRAL WYOMING
  
CITY           SKY/WX    TMP DP  RH WIND       PRES   REMARKS
BIG PINEY      FAIR      43  35  73 CALM      30.18S                  
PINEDALE       FAIR      43  34  70 NW6       30.18                   
DUBOIS         FAIR      46  32  57 NW8       30.14                   
LANDER         FAIR      50  43  77 SE3       30.08S                  
RIVERTON       FAIR      51  39  63 SW6       30.09S                  
CASPER         PTSUNNY   48  44  86 S5        30.09S                  
DOUGLAS        CLOUDY    48  44  86 NW8       30.08R                  

$$
WYZ021-027>030-104>119-231500-
SOUTHERN WYOMING
  
CITY           SKY/WX    TMP DP  RH WIND       PRES   REMARKS
EVANSTON       FAIR      41  30  65 SW10      30.21R                  
KEMMERER       FAIR      45  32  61 CALM      30.21                   
ROCK SPRINGS   FAIR      45  34  65 W6        30.17R                  
DIXON          CLOUDY    38  35  89 SE8G16    30.21S WCI  33          
RAWLINS        CLOUDY    44  38  79 W8        30.15R                  
SARATOGA       CLOUDY    39  39 100 CALM      30.15S                  
LARAMIE        LGT RAIN  36  34  92 W14       30.09S WCI  27          
CHEYENNE       PTSUNNY   45  37  73 NW14      30.07F                  
TORRINGTON     LGT RAIN  48  43  82 W10       30.02R                  
PINE BLUFFS    PTSUNNY   46  41  81 W9        30.04S                  

$$